Regional Weather Roundup
Issued by NWS

Home | Current Version | Previous Version | Text Only | Print | Product List | Glossary On
Versions: 1 2 3 4 5 6 7 8 9 10 11 12 13 14 15 16 17 18 19 20 21 22 23 24 25 26 27 28 29 30 31 32 33 34 35 36 37 38 39 40 41 42 43 44 45 46 47 48 49 50
000
ASUS46 KLOX 160712
RWRCA

SOUTHERN CALIFORNIA WEATHER ROUNDUP
NATIONAL WEATHER SERVICE OXNARD CALIFORNIA
1200 AM PDT TUE SEP 16 2014

NOTE: "FAIR" INDICATES FEW OR NO CLOUDS BELOW 12,000 FEET WITH NO
SIGNIFICANT WEATHER AND/OR OBSTRUCTIONS TO VISIBILITY.

  -  STATIONS PRECEEDED BY AN ASTERISK (*) ARE NOT NWS OR FAA
     STATIONS AND ARE NOT SUBJECT TO NWS AND FAA QUALITY CONTROL.

CAZ041-042-087-160800-
LA AND ORANGE COUNTY COASTAL AREAS


CITY           SKY/WX    TMP DP  RH WIND       PRES   REMARKS
L.A. DOWNTOWN  CLEAR     81  62  52 CALM      29.78R
L.A. AIRPORT   CLEAR     76  61  59 SE3       29.78S
LONG BEACH     CLEAR     77  65  66 E6        29.78R

CITY           SKY/WX    TMP DP  RH WIND       PRES   REMARKS
AVALON           N/A     73 N/A N/A MISG        N/A
FULLERTON      CLEAR     81  62  52 SE5       29.77S
*GETTY CENTER    N/A     81  59  47 NE5G10      N/A
HAWTHORNE      CLEAR     78  61  55 CALM      29.78S
*LOS ALAMITOS  FAIR      76  64  66 SE6       29.78S
*REDONDO BEACH   N/A     75  61  62 CALM      29.77F
SANTA ANA      CLEAR     80  63  55 S7        29.79S
STA MONICA APT CLEAR     78  61  55 E3        29.79R
*STA MON PIER    N/A     76  65  69 N1        29.77S
*UCLA            N/A     79  61  53 N3        29.77S

$$

CAZ547-548-048-160800-
LA COUNTY VALLEYS AND INLAND EMPIRE


CITY           SKY/WX    TMP DP  RH WIND       PRES   REMARKS
BURBANK        CLEAR     86  56  35 SE6       29.81R
VAN NUYS       CLEAR     87  52  29 W3        29.80S

CITY           SKY/WX    TMP DP  RH WIND       PRES   REMARKS
*CHATSWORTH      N/A     82  59  44 W1        29.74S
CHINO          CLEAR     80  57  45 CALM      29.81F
*CLAREMONT       N/A     78  47  32 CALM        N/A
MARCH AFB      CLEAR     78  50  37 SE2       29.86F
*NORTHRIDGE      N/A     86  50  28 CALM        N/A
ONTARIO        CLEAR     88  54  31 N3        29.82S
*PASADENA        N/A     84  61  45 E1          N/A
RIVERSIDE      CLEAR     86  55  34 CALM      29.81S
SAN BERNARDINO NOT AVBL
*SAN GABRIEL     N/A     84  57  39 CALM      29.73F
*WHITEMAN AP   NOT AVBL
*WOODLAND HILL   N/A     81  52  36 SE1         N/A

$$

CAZ054-055-160800-
LA AND SAN BERNARDINO COUNTY MOUNTAINS


CITY           SKY/WX    TMP DP  RH WIND       PRES   REMARKS
*ACTON           N/A     76  48  36 CALM        N/A
*BIG BEAR AIRP SUNNY     54  41  62 CALM      30.29S
*BIG PINES       N/A     64  44  47 CALM        N/A
*CHILAO          N/A     75  42  30 N5          N/A
MT WILSON NWS    N/A     73  41  31 MISG        N/A
SANDBERG       CLEAR     77  46  33 N15       30.12S
*WARM SPRINGS    N/A     78  47  32 W12         N/A

$$

CAZ028-029-059-060-099-160800-
ANTELOPE VALLEY AND SURROUNDING AREAS


CITY           SKY/WX    TMP DP  RH WIND       PRES   REMARKS
LANCASTER      CLEAR     83  48  29 W13       29.94R
PALMDALE       PTCLDY    82  47  29 SW3       29.96R

CITY           SKY/WX    TMP DP  RH WIND       PRES   REMARKS
29 PALMS       CLEAR     85  54  34 CALM      29.95F
BARSTOW/DAGGET CLEAR     90  46  21 W5        29.88S
BISHOP         CLEAR     68  41  37 NW6       30.04R
CHINA LAKE     CLEAR     83  48  29 S7        29.89S
EDWARDS AFB    CLEAR     81  46  30 SW9       29.91S
MOJAVE         FAIR      84  46  26 NW13      29.96R
NEEDLES        CLEAR     94  55  26 CALM      29.79S HX  92
VICTORVILLE    CLEAR     81  46  30 SW5       29.98S

$$

CAZ039-040-160800-
VENTURA AND SANTA BARBARA COUNTY COAST


CITY           SKY/WX    TMP DP  RH WIND       PRES   REMARKS
CAMARILLO      CLEAR     75  61  61 CALM      29.78S
NWS OXNARD       N/A     71  62  71 CALM      29.77S
OXNARD AIRPORT CLEAR     69  62  78 W3        29.78S
*POINT MUGU    CLEAR     73  62  68 NW7       29.78S
SBA APT/GOLETA CLEAR     77  54  44 CALM      29.76S
*VENTURA         N/A     70  61  73 CALM      29.84S

$$

CAZ044-045-160800-
VENTURA COUNTY VALLEYS


CITY           SKY/WX    TMP DP  RH WIND       PRES   REMARKS
*SIMI VALLEY     N/A     76  58  53 CALM      29.73R
*OJAI            N/A     72  59  63 CALM      29.71S
*FILLMORE        N/A     70  63  78 CALM      29.69F

$$

CAZ053-160800-
VENTURA COUNTY MOUNTAINS


CITY           SKY/WX    TMP DP  RH WIND       PRES   REMARKS
*LOCKWOOD VLY    N/A    N/A N/A N/A MISG        N/A
*ROSE VALLEY     N/A     64  50  59 MISG        N/A

$$

CAZ034-035-036-160800-
CENTRAL COAST AND SANTA YNEZ VALLEY


CITY           SKY/WX    TMP DP  RH WIND       PRES   REMARKS
SAN LUIS OBISP CLEAR     62  56  80 CALM      29.91S
SANTA MARIA    CLEAR     62  55  77 W3        29.91S

CITY           SKY/WX    TMP DP  RH WIND       PRES   REMARKS
*CAL POLY SLO    N/A     59  55  88 CALM        N/A
*LOMPOC        CLEAR     57  52  82 W3        29.91S
*PISMO BEACH     N/A     63  56  78 NE3       29.91S
*SANTA YNEZ    FAIR      61  54  77 CALM      29.90S

$$

CAZ037-038-051-160800-
SAN LUIS OBISPO COUNTY INTERIOR AND CUYAMA VALLEY


CITY           SKY/WX    TMP DP  RH WIND       PRES   REMARKS
*CUYAMA          N/A     72  40  31 S2        29.84S
PASO ROBLES    CLEAR     67  47  48 NW10      29.93R

$$

CAZ032-033-061-160800-
SOUTHERN DESERTS


CITY           SKY/WX    TMP DP  RH WIND       PRES   REMARKS
BLYTHE         CLEAR     92  70  48 S18       29.76S HX  97
IMPERIAL       CLEAR     91  74  57 SE15      29.72S HX 100
PALM SPRINGS   CLEAR     98  51  20 NW7       29.77S HX  95
THERMAL        CLEAR     90  68  48 SE7       29.72R HX  94

$$

ELSEWHERE ACROSS THE WESTERN UNITED STATES AND MEXICO


CITY           SKY/WX    TMP DP  RH WIND       PRES   REMARKS
DENVER, CO     CLEAR     55  48  77 S6        30.22F
GRAND CANYON,  CLEAR     52  43  71 CALM      30.30S
HONOLULU, HI   PTCLDY    81  70  69 N6        29.95R
KAHULUI, MAUI  PTCLDY    79  72  78 NE7       29.96R
LAKE TAHOE, CA CLEAR     65  40  39 SW9       30.19F
LAS VEGAS, NV  CLEAR     88  47  24 S9        29.86S
MAMMOTH LAKES, FAIR      66  37  34 SW12      30.29R
MEXICO CITY, M MOCLDY    61  50  67 NE5       30.36S
PHOENIX, AZ    MOCLDY    91  67  44 SE8       29.85R HX  94
PORTLAND, OR   MOCLDY    66  52  60 CALM      29.84R
RENO, NV       PTCLDY    72  44  36 N5        30.06S
SALT LAKE CITY CLEAR     68  43  40 SE9       30.08S
SAN DIEGO, CA  CLEAR     76  71  85 NW7       29.80F
SAN FRANCISCO, PTCLDY    65  61  87 NW5       29.94R
SAN JOSE, CA   CLEAR     64  54  69 N5        29.94S
SEATTLE, WA    MOCLDY    65  48  54 CALM      29.83S
TIJUANA, MEX   CLEAR     77  66  69 CALM      29.83S

$$

STATION/POSITION TIME  TEMP    WIND        PRES    VSBY  WAVE
                       AIR SEA DIR/SP/G                  HT/PER
                 (UTC) (F)     (DEG/KT/KT) (MB)    (MI)  (FT/S)
POINT ARGUELLO B NOT AVBL
WEST SANTA BARBA 0700   65 65  320/ 25/ 29 1009.3F         5/19
POINT CONCEPTION NOT AVBL
EAST SANTA BARBA 0700   72 68  270/ 14/ 16 1008.2F
SANTA MONICA BAY 0700   74 74  330/  2/  4 1007.9S         5/21



USA.gov is the U.S. government's official web portal to all federal, state and local government web resources and services.